Location: Colle Santa Colomba
(42.0333°N, 12.5667°E)
Time: 21:21:36
(UTC+00:00)

Meteor 1-4 Rocket - Pass Details

Date: 25 October 2021
Orbit: 447 x 496 km, 81.2° (Epoch: 05 December)

Event Time Altitude Azimuth Distance (km) Brightness Sun altitude
Rises 18:00:34 0° 210° (SSW) 2,465 6.5 -20.6°
Reaches altitude 10° 18:02:49 10° 222° (SW) 1,589 5.7 -21.0°
Maximum altitude 18:05:54 30° 285° (WNW) 844 4.4 -21.6°
Drops below altitude 10° 18:08:59 10° 348° (NNW) 1,586 5.3 -22.2°
Sets 18:11:14 0° 360° (N) 2,460 6.2 -22.6°
